Location: Ferchesar
(52.6477°N, 12.4298°E)
Time: 05:25:44
(UTC+02:00)

Vanguard 3 - Pass Details

Date: 08 March 2021
Orbit: 508 x 3262 km, 33.3° (Epoch: 15 April)

Event Time Altitude Azimuth Distance (km) Brightness Sun altitude
Rises 18:33:54 0° 267° (W) 7,108 14.8 -5.6°
Reaches altitude 10° 18:40:09 10° 257° (WSW) 5,835 13.1 -6.6°
Maximum altitude 18:52:22 25° 212° (SSW) 3,872 10.9 -8.4°
Drops below altitude 10° 19:01:12 10° 163° (SSE) 4,106 10.5 -9.7°
Sets 19:04:40 0° 150° (SSE) 4,697 10.7 -10.3°
